Preview of NWS' New Version of Forecast
This preview is not operational and should not be used for support decisions.

Regional Weather Roundup (RWR)

Issued by National Weather Service (NWS)

                            
000
ASUS42 KTBW 181715
RWRFL 
FLORIDA REGIONAL WEATHER ROUNDUP
NATIONAL WEATHER SERVICE TAMPA BAY RUSKIN FL
100 PM EDT TUE JUN 18 2019

NOTE: "FAIR" INDICATES FEW OR NO CLOUDS BELOW 12,000 FEET WITH NO
SIGNIFICANT WEATHER AND/OR OBSTRUCTIONS TO VISIBILITY.

FLZ001>010-012>015-112-114-115-181800-
PANHANDLE FLORIDA
  
CITY           SKY/WX    TMP DP  RH WIND       PRES   REMARKS
PENSACOLA      FAIR      86  77  74 S17       29.97S HX  97           
PENSACOLA NAS  TSTM      78  74  87 S14       29.98R                  
MILTON NAS     PTSUNNY   85  75  72 SW10      29.97  THUNDER          
CRESTVIEW      FAIR      78  73  84 CALM      29.99F                  
DUKE FIELD     MOSUNNY   82  75  79 NE6       29.98F                  
VALPARAISO     PTSUNNY   88  77  70 S13       29.96F HX 100           
MARY ESTHER    PTSUNNY   86  78  76 SW12      29.97  THUNDER HX  97   
TRI COUNTY     LGT RAIN  81  76  84 SW9       30.00S                  
PANAMA CITY    PTSUNNY   87  75  67 S10G20    29.98S HX  96           
TYNDALL AFB    FAIR      87  76  71 S10       29.98F HX  97           
APALACHICOLA   FAIR      88  75  65 S10       30.00F HX  97           

STATION/POSITION SKY/WX   TEMP    WIND        PRES    WAVE   SWELL
                          AIR SEA DIR/SP/G            HT/PER HT/PER
                          (F)     (DEG/KT/KT) (MB)    (FT/S) (FT/S)
30.1N   87.6W                                   N/A     3/ 5
29.2N   88.2W                     220/ 17/ 19 1015.4F   4/ 5
PANAMA CITY BEAC NOT AVBL
TOWER C          NOT AVBL

$$
FLZ011-016>038-118-127-128-134-139-239-181800-
NORTH FLORIDA
  
CITY           SKY/WX    TMP DP  RH WIND       PRES   REMARKS
MARIANNA       FAIR      86  74  67 VRB3      29.97F                  
TALLAHASSEE    PTSUNNY   88  75  65 CALM      29.98F HX  97           
PERRY          PTSUNNY   81  78  89 SE5       30.02F                  
LIVE OAK       PTSUNNY   84  73  70 CALM      30.00F                  
CROSS CITY     FAIR      84  78  80 N8        30.01F HX  95           
LAKE CITY      CLOUDY    82  72  69 NW5       30.02S                  
GAINESVILLE    CLOUDY    89  74  60 W6        30.03F HX  98           
PALATKA        FAIR      75  75 100 W7        30.03S                  
MAYPORT NAS    FAIR      88  72  58 NW5       30.00F                  
JACKSONVILLE   PTSUNNY   87  71  58 S5        29.99F                  
JAX NAS        PTSUNNY   84  72  67 E8        30.01F                  
JAX CECIL      PTSUNNY   91  72  52 VRB5      30.00F HX  98           
FERNANDINA BEA FAIR      86  76  70 SE10      30.00F HX  96           
ST AUGUSTINE   PTSUNNY   79  75  87 N3        30.02F                  
PALM COAST     CLOUDY    77  73  88 CALM      30.01F                  

STATION/POSITION SKY/WX   TEMP    WIND        PRES    WAVE   SWELL
                          AIR SEA DIR/SP/G            HT/PER HT/PER
                          (F)     (DEG/KT/KT) (MB)    (FT/S) (FT/S)
SHELL POINT      NOT AVBL
KEATON BEACH               82     220/  4/  5 1016.3F
CEDAR KEY                  83     250/  7/ 11 1017.0
FERNANDINA       NOT AVBL
30.7N   81.3W                 83                N/A     3/ 5
MAYPORT          NOT AVBL
31.4N   80.9W              80 84  230/  4/  6 1016.3F   3/ 6   3/ 6
ST AUGUSTINE               76 81  170/  6/  7 1016.4F

$$
FLZ040-043>046-052-053-057-058-063-144-181800-
INTERIOR CENTRAL FLORIDA
  
CITY           SKY/WX    TMP DP  RH WIND       PRES   REMARKS
OCALA          LGT RAIN  79  77  94 SW8       30.05R                  
LEESBURG       TSTM      74  72  93 SW7       30.05F FOG              
SANFORD        FAIR      89  72  56 S8        30.01F HX  96           
ORLANDO EXEC   FAIR      89  73  59 SW12      30.02F HX  97           
ORLANDO INTL   FAIR      89  73  59 SW9       30.03F HX  97           
KISSIMMEE      FAIR      89  74  60 SW8       30.04S HX  98           
WINTER HAVEN   TSTM      80  70  71 W12G25    30.08R                  
LAKELAND       PTSUNNY   75  73  94 S5        30.05F                  
BARTOW         TSTM      77  72  83 W5        30.05R                  
SEBRING        PTSUNNY   79  73  82 CALM      30.04F                  
OKEECHOBEE     FAIR      86  75  70 S9        30.05F HX  95           

$$
FLZ041-047-054-059-064-141-147-181800-
EAST CENTRAL FLORIDA
  
CITY           SKY/WX    TMP DP  RH WIND       PRES   REMARKS
ORMOND BEACH   PTSUNNY   88  75  66 S6        30.01F HX  97           
DAYTONA BEACH  PTSUNNY   89  75  63 S6        30.01F THUNDER HX  99   
DELAND         PTSUNNY   88  73  62 S13       30.00F HX  96           
NEW SMYRNA BEA PTSUNNY   88  73  62 SW8       30.02F HX  96           
JFK SPACE CTR  PTSUNNY   86  68  54 SW10G21   30.02F                  
TITUSVILLE     PTSUNNY   90  73  58 S6        30.04S HX  98           
CAPE CANAVERAL FAIR      88 N/A N/A S12       30.02F                  
PATRICK AFB    FAIR      89  75  63 SW8       30.03F HX 100           
MELBOURNE      PTSUNNY   88  74  63 SW10      30.03F HX  96           
VERO BEACH     FAIR      88  72  58 S9        30.05F                  
FT PIERCE      FAIR      89  72  56 SW8       30.04F HX  96           
STUART         PTSUNNY   88  72  58 S9        30.06F                  

STATION/POSITION SKY/WX   TEMP    WIND        PRES    WAVE   SWELL
                          AIR SEA DIR/SP/G            HT/PER HT/PER
                          (F)     (DEG/KT/KT) (MB)    (FT/S) (FT/S)
28.5N   80.2W              79 80  180/ 14/ 16 1017.5F   3/ 4   2/ 8
28.9N   78.5W              78 82  160/ 16/ 19   N/A
TRIDENT PIER     NOT AVBL
28.4N   80.5W                 78                N/A     2/ 5
27.5N   80.2W                 81                N/A     2/ 4

$$
FLZ050-056-061-142-242-148-248-149-249-151-251-155-255-
160-260-181800-
WEST CENTRAL FLORIDA
  
CITY           SKY/WX    TMP DP  RH WIND       PRES   REMARKS
CRYSTAL RIVER  FAIR      81  73  78 CALM      30.04S                  
INVERNESS      PTSUNNY   77  77 100 CALM      30.04F                  
BROOKSVILLE    PTSUNNY   84  74  71 W10       30.05S                  
CLEARWATER AIR PTSUNNY   86  73  66 W8        30.03F                  
ST PETE CLEARW FAIR      88  75  65 SW14      30.03F HX  97           
TAMPA INTL     PTSUNNY   88  75  65 SW8       30.04S HX  97           
TAMPA EXEC     CLOUDY    82  77  83 W3        30.04S                  
PLANT CITY       N/A    N/A N/A N/A MISG        N/A                   
MACDILL AFB    PTSUNNY   88  75  65 SW16      30.03F HX  98           
PETER O KNIGHT CLOUDY    88  79  74 SW13      30.04S HX 102           
ST PETERSBURG  PTSUNNY   86  74  67 SW12G23   30.01F                  
SARASOTA       FAIR      88  77  69 SW14      30.02F HX 100           
VENICE         FAIR      88  77  70 SW14      30.05S HX 100           

STATION/POSITION SKY/WX   TEMP    WIND        PRES    WAVE   SWELL
                          AIR SEA DIR/SP/G            HT/PER HT/PER
                          (F)     (DEG/KT/KT) (MB)    (FT/S) (FT/S)
27.3N   84.2W                 83                N/A     2/ 4
CLEARWATER BEACH NOT AVBL
MIDDLE TAMPA BAY NOT AVBL
VENICE                     83 84  200/ 17/ 18 1017.5F

$$
FLZ066-069-070-075>078-162-262-165-265-181800-
SOUTHWEST FLORIDA AND KEYS
  
CITY           SKY/WX    TMP DP  RH WIND       PRES   REMARKS
PUNTA GORDA    FAIR      87  73  62 S13       30.05F                  
FT MYERS       FAIR      78  73  84 S6        30.05F                  
SOUTHWEST INTL LGT RAIN  82  73  74 SE5       30.06F                  
NAPLES         FAIR      78  32  18 SE6       30.06F THUNDER          
IMMOKALEE      FAIR      75  73  94 CALM      30.05F THUNDER          
MARATHON       FAIR      91  78  65 SE7       30.07F HX 106           
KEY WEST NAS   PTSUNNY   91  78  65 SE13      30.08S HX 106           
KEY WEST INTL  FAIR      86  77  74 SE12      30.08S HX  97           

STATION/POSITION SKY/WX   TEMP    WIND        PRES    WAVE   SWELL
                          AIR SEA DIR/SP/G            HT/PER HT/PER
                          (F)     (DEG/KT/KT) (MB)    (FT/S) (FT/S)
NAPLES           NOT AVBL
DRY TORTUGAS               84     160/ 12/ 13 1018.4S
SAND KEY                   83                 1018.4F
SOMBRERO KEY               84                 1017.8F

$$
FLZ067-068-071>074-168-172>174-181800-
SOUTHEAST FLORIDA 
  
CITY           SKY/WX    TMP DP  RH WIND       PRES   REMARKS
W PALM BEACH   PTSUNNY   88  73  61 SW9       30.06F HX  95           
BOCA RATON     MOSUNNY   91  73  55 S9        30.07F HX 100           
FT LAUDER-EXEC FAIR      90  68  48 W9        30.06F                  
FT LAUDERDALE  PTSUNNY   89  70  53 CALM      30.05F                  
POMPANO BEACH  PTSUNNY   87  73  62 SE12      30.06F                  
PEMBROKE PINES PTSUNNY   90  72  55 S8        30.08F HX  97           
OPA LOCKA      PTSUNNY   90  74  59 SW9       30.07F HX  99           
MIAMI          PTSUNNY   89  71  55 S9        30.07F HX  95           
WEST KENDALL   FAIR      90  71  53 S9        30.07S HX  96           
HOMESTEAD      FAIR      89  71  54 SE9       30.06F HX  95           

STATION/POSITION SKY/WX   TEMP    WIND        PRES    WAVE   SWELL
                          AIR SEA DIR/SP/G            HT/PER HT/PER
                          (F)     (DEG/KT/KT) (MB)    (FT/S) (FT/S)
SETTLEMENT POINT           82     190/ 16/ 19 1018.5F

$$